386  
ASUS43 KFSD 262010  
RWRSD  
 
WEATHER ROUNDUP FOR SOUTH DAKOTA  
NATIONAL WEATHER SERVICE SIOUX FALLS SD  
300 PM CDT MON JUN 26 2017  
 
NOTE: "FAIR" INDICATES FEW OR NO CLOUDS BELOW 12,000 FEET WITH NO  
SIGNIFICANT WEATHER AND/OR S TO VISIBILITY
.  
 
 
SDZ001>005-009-010-012>017-262100-  
NORTHWEST AND NORTH CENTRAL SOUTH DAKOTA  
 
CITY SKY/WX TMP DP RH WIND PRES REMARKS
 
BUFFALO N/A 79 37 22 S15G25 30.06F  
FAITH N/A 74 40 29 SE12G17 30.16F  
MOBRIDGE SUNNY 74 39 28 SW8 30.16F  

 
 
SDZ012>016-024>037-041>051-057-063-072>074-262100-  
SOUTHWEST AND SOUTH CENTRAL SOUTH DAKOTA  
 
CITY SKY/WX TMP DP RH WIND PRES REMARKS
 
RAPID CTY ARPT SUNNY 76 38 25 SE13G22 30.16F  
PIERRE SUNNY 72 41 32 SE7 30.17F  
CUSTER SUNNY 69 35 28 S12G17 30.25F  
ELLSWORTH AFB MOSUNNY 77 37 23 S10G20 30.15F  
PHILIP SUNNY 76 40 27 E6 30.16F  
PINE RIDGE SUNNY 78 41 26 MISG 30.17F  
SPEARFISH FAIR 75 41 29 E15G22 30.16F  
WINNER FAIR 77 38 24 NE3G22 30.19F  

 
 
SDZ004>011-016>023-039-040-262100-  
NORTHEAST SOUTH DAKOTA  
 
CITY SKY/WX TMP DP RH WIND PRES REMARKS
 
ABERDEEN SUNNY 69 36 29 VRB7G16 30.20F  
WATERTOWN SUNNY 66 39 37 VRB5 30.20F  
BROOKINGS SUNNY 66 39 37 VRB6 30.20F  
SISSETON N/A 72 38 29 N9 30.19F  

 
 
SDZ017-020-022-023-036>040-048>070-262100-  
SOUTHEAST SOUTH DAKOTA  
 
CITY SKY/WX TMP DP RH WIND PRES REMARKS
 
SIOUX FALLS MOSUNNY 70 47 43 N9 30.19F  
HURON SUNNY 70 37 29 SE7 30.19F  
CHAMBERLAIN SUNNY 74 40 29 NE9 30.19F  
MITCHELL SUNNY 72 36 26 NE7 30.19F  
YANKTON MOSUNNY 71 44 37 N8 30.18F  

 
 
ABBREVIATIONS USED IN REMARKS  
TC - TEMPERATURE IN CELSIUS  
WCI - WIND CHILL INDEX  
HX - HEAT INDEX  
VSB - VISIBILITY  
 
 
 
CLICK HERE TO GO TO PREVIOUS BULLETINS.

The Nexlab SD Page Main Text Page